Wind_Speed
11 11 11 11 11 11 11 11 11 11 11 11 11 11 11 12 12 12 12 12 12 11 12 12 12 12 12 13 13 13 15 16 15 11 8 5 6 3 6 4 7 15 16 19 22 18 12 9 8 7 6 4 0 3 3 0 1 2 2 2 4 4 3 4 4 3 1 5 7 8 7 7 11 10 5 2 1 1 2 1 3 3 3 2 6 16 23 23
11 11 11 11 11 11 11 11 11 11 11 11 12 12 12 12 12 12 12 11 12 12 12 13 12 13 13 13 13 14 16 16 13 11 6 3 8 5 4 4 12 18 20 23 24 20 13 8 8 7 4 2 0 1 2 1 2 2 2 3 5 2 1 2 2 1 2 7 10 9 4 5 9 7 4 5 4 1 4 2 3 3 2 5 11 18 22 23
11 11 11 12 12 12 12 11 12 12 12 12 12 12 12 12 12 12 12 12 12 12 12 13 13 13 13 13 12 14 15 12 7 4 1 7 12 7 3 11 17 20 20 23 24 21 17 15 13 9 3 2 1 1 2 2 2 2 2 6 4 2 1 2 3 3 4 6 9 10 5 5 6 3 3 6 7 4 5 3 2 4 3 7 11 17 20 20
11 11 12 12 12 12 12 12 12 12 12 12 12 12 12 12 12 12 12 12 12 12 12 12 13 13 12 13 12 12 12 5 1 0 3 10 14 7 8 17 21 20 17 19 19 16 18 19 12 5 3 3 1 1 4 3 2 3 3 4 3 2 1 2 3 5 6 4 5 9 8 8 6 1 4 7 7 6 4 5 7 5 4 8 11 14 16 14
12 12 12 12 12 12 12 12 12 12 12 12 12 11 11 12 11 12 12 12 12 12 12 12 13 13 12 11 9 10 8 1 1 2 7 13 15 5 11 20 23 19 15 17 15 14 17 15 8 3 2 3 3 3 4 4 2 3 5 1 4 1 3 2 3 5 5 3 4 8 9 9 6 4 6 6 6 5 2 1 6 4 7 10 12 12 12 10
12 12 12 12 12 12 12 12 12 12 12 12 11 11 11 12 12 12 12 12 12 12 12 12 13 13 11 9 7 7 4 1 2 6 12 14 11 2 15 20 24 19 14 16 15 15 14 9 7 5 2 3 5 5 3 4 3 5 6 1 2 4 4 4 5 5 3 4 6 6 6 6 8 8 4 5 9 6 4 3 1 6 11 14 14 12 10 9
12 12 12 12 12 13 13 12 12 12 12 11 11 12 12 12 12 12 12 11 12 11 12 11 12 12 9 8 4 3 1 4 6 9 13 10 4 9 15 18 25 19 12 17 14 10 10 8 7 5 4 4 3 5 3 4 4 8 5 1 2 3 4 6 5 5 3 6 7 5 6 5 7 7 3 6 9 3 4 4 7 11 15 16 14 11 10 10
12 12 12 12 12 13 13 13 12 12 12 12 12 12 12 12 12 12 12 11 11 11 11 10 12 11 9 7 2 2 1 5 7 9 9 2 7 14 16 19 25 18 13 18 14 10 9 10 8 4 5 3 4 7 4 5 6 10 7 1 3 3 5 6 5 7 5 6 6 5 7 6 6 5 4 9 5 5 5 9 14 14 15 15 12 12 11 11
13 13 12 13 13 13 13 13 13 12 12 12 12 12 12 12 12 12 11 12 11 10 11 10 10 8 7 5 2 3 2 1 6 6 5 4 14 18 17 20 23 16 13 15 14 14 9 7 7 4 4 3 6 8 5 7 6 7 7 4 7 7 6 5 5 7 4 3 2 5 9 6 4 3 5 4 5 7 9 12 15 15 16 14 11 11 11 12
13 13 13 13 13 13 13 13 14 14 13 13 12 12 12 12 12 12 11 12 11 10 10 8 9 7 4 2 1 2 2 1 4 9 9 6 16 20 15 17 21 15 11 9 10 12 5 5 6 3 3 3 5 6 5 6 2 2 4 5 7 7 5 3 5 6 3 3 5 7 9 5 2 2 4 3 8 9 12 13 14 15 14 13 11 9 9 11
13 13 13 14 13 13 13 13 13 14 13 13 13 13 12 12 13 12 12 12 10 10 9 6 7 5 2 1 1 2 2 2 3 7 9 8 13 16 12 12 18 15 11 7 7 10 3 5 8 2 1 4 6 4 3 4 1 1 2 4 5 4 4 4 5 5 2 4 6 6 6 3 1 3 2 5 7 9 12 14 14 14 12 12 12 9 7 8
13 13 14 14 14 14 14 14 14 14 14 14 13 13 12 12 13 14 14 13 11 9 7 4 4 2 2 1 4 7 4 3 4 1 3 8 8 8 6 8 14 14 11 7 6 11 6 5 8 3 1 4 6 3 2 2 2 3 2 4 4 4 4 3 3 2 1 3 4 4 6 3 3 5 1 6 6 9 12 14 13 13 12 11 11 8 6 7
13 14 14 14 14 15 15 15 14 14 15 14 14 13 13 13 14 15 15 14 10 7 4 1 1 0 1 2 5 6 6 7 6 6 8 8 5 4 6 8 11 11 10 6 5 10 10 5 5 3 1 3 3 1 1 1 2 3 1 2 3 4 4 1 0 2 2 3 3 4 5 3 4 7 3 4 7 9 11 13 13 11 10 11 10 7 7 8
13 14 14 14 14 15 16 15 15 15 14 15 14 13 14 15 15 15 14 12 8 5 2 2 2 3 2 5 8 6 8 10 12 15 15 14 10 6 7 10 11 12 9 6 4 4 10 6 2 3 2 1 1 1 1 2 1 2 1 1 1 2 3 2 0 2 1 0 1 5 5 3 4 6 5 4 8 9 10 12 13 11 9 10 9 7 8 9
14 14 14 14 15 16 16 16 16 15 15 15 14 14 15 14 13 11 9 6 2 4 6 5 4 3 0 7 8 6 8 10 13 17 17 17 12 6 10 13 11 12 10 8 4 2 7 8 2 3 2 0 0 0 0 1 1 1 2 2 1 1 2 4 1 2 3 2 1 3 4 4 4 5 5 4 8 8 9 11 12 12 11 11 9 8 8 9
14 14 14 15 15 16 16 16 16 15 16 15 14 15 13 9 7 6 2 3 5 7 8 5 3 2 1 3 2 2 5 7 7 8 9 14 14 7 10 13 9 9 8 6 5 3 6 8 2 1 1 1 1 1 1 1 0 1 2 3 1 1 1 3 1 2 3 2 4 2 2 4 3 3 3 5 8 8 9 10 12 13 12 12 10 8 8 9
14 14 15 15 16 16 16 16 16 16 16 15 16 14 7 4 4 4 5 8 8 8 8 4 3 3 2 2 1 3 3 3 2 1 2 8 13 10 11 10 6 7 6 3 5 3 5 5 1 1 1 1 1 1 2 4 3 1 1 2 1 1 1 2 0 1 4 3 3 3 2 6 7 4 2 5 8 8 10 10 12 12 12 12 10 10 9 10
14 15 15 15 16 16 16 16 16 16 16 16 16 9 2 6 5 5 8 10 9 8 5 2 2 2 3 2 2 2 1 2 4 3 2 5 12 14 11 8 7 8 5 3 3 3 2 1 0 2 1 1 2 3 4 3 3 3 2 2 1 1 2 1 2 1 5 5 4 4 3 7 9 6 2 4 7 8 10 10 10 11 12 12 11 10 10 10
15 15 15 16 16 16 16 16 17 16 16 17 11 2 5 6 4 4 6 6 5 3 1 2 4 1 1 2 3 3 4 7 8 5 3 7 12 12 8 9 10 8 5 3 2 2 2 2 2 4 4 4 5 5 6 3 2 3 2 2 2 3 2 1 3 4 4 6 7 6 5 6 9 8 3 2 6 8 9 10 10 10 11 12 12 10 10 11
15 15 16 16 16 16 17 16 16 16 17 16 6 3 3 2 2 1 1 3 4 3 2 3 7 3 3 3 2 4 6 5 4 1 6 10 13 11 5 5 5 4 3 4 3 2 2 4 4 5 5 5 5 6 5 3 3 2 1 2 3 4 2 0 4 5 1 4 7 5 5 6 9 10 4 4 6 9 10 12 12 12 12 12 13 11 12 13
15 16 16 17 16 17 17 16 17 18 16 10 3 1 1 1 1 1 2 5 7 7 8 7 8 9 8 2 2 5 4 3 3 2 6 10 14 11 3 3 4 4 2 2 3 2 2 5 5 4 5 5 5 6 5 3 3 2 3 4 4 4 2 2 6 6 1 4 5 2 4 8 8 8 5 1 6 10 12 14 14 15 15 13 14 14 12 12
16 15 16 16 17 18 17 17 18 16 8 1 1 1 1 1 1 1 2 4 5 7 10 9 7 12 8 3 5 2 3 3 5 4 7 10 9 7 4 4 5 4 2 2 4 3 3 6 5 5 6 5 4 4 5 4 3 3 2 3 5 2 1 4 5 3 1 4 4 2 4 10 8 5 6 3 3 7 10 14 14 15 15 14 15 14 13 13
16 15 16 16 17 18 17 18 17 8 4 4 4 2 2 1 2 3 2 4 6 3 6 7 7 9 4 3 8 7 4 6 5 4 10 12 5 4 7 6 6 4 4 6 6 5 4 4 5 7 6 6 4 3 5 3 2 3 3 4 4 0 0 4 2 1 2 4 5 5 6 8 6 3 4 2 1 4 7 12 14 13 14 13 14 13 13 15
16 16 16 16 18 18 17 18 12 3 5 9 6 3 2 2 5 2 3 2 4 3 4 7 6 6 5 4 10 14 7 5 4 4 12 14 5 4 7 6 6 5 5 7 7 6 3 1 4 7 5 6 5 4 5 3 3 3 5 6 4 2 5 6 1 2 3 3 3 5 6 5 2 3 4 2 2 4 5 9 14 14 14 12 11 12 13 14
16 16 16 16 17 18 18 15 7 4 10 9 3 3 2 5 5 3 3 2 2 3 2 5 3 5 5 4 10 11 4 4 7 4 10 14 9 6 5 3 4 7 7 7 6 6 5 2 6 7 4 5 5 4 6 6 4 3 5 9 9 8 9 7 1 2 4 2 1 2 5 3 0 3 5 2 3 4 3 8 13 14 14 12 11 12 12 13
16 15 16 16 16 18 15 7 4 7 11 3 7 4 3 9 5 5 2 2 1 3 0 2 2 3 3 4 7 5 3 3 6 6 11 15 13 7 4 3 1 5 7 6 3 3 3 4 6 7 6 6 5 4 5 6 4 3 4 9 12 11 8 5 4 2 3 1 1 1 4 3 2 5 6 3 5 6 5 7 10 10 12 12 10 10 11 12
16 15 16 15 14 15 10 4 8 10 5 4 7 2 8 11 3 7 2 2 1 2 1 1 1 3 2 4 7 4 3 1 0 7 10 11 9 3 4 7 2 2 5 4 3 2 2 5 5 5 5 5 5 4 5 8 5 2 1 5 8 8 7 7 6 6 3 2 1 1 2 4 5 4 3 3 8 7 4 5 6 6 8 10 10 10 10 12
15 15 16 15 13 12 8 9 11 7 3 3 3 5 10 6 5 6 0 2 1 1 1 0 1 4 1 3 6 4 1 2 0 3 3 7 6 1 3 9 7 6 6 5 6 2 3 6 8 7 5 4 5 4 7 11 6 2 3 4 5 6 6 6 6 5 2 2 3 3 2 4 4 2 1 2 7 6 3 2 2 3 6 8 9 8 8 9
16 15 15 15 14 12 10 10 9 6 3 2 4 10 8 3 7 2 1 1 1 2 1 1 2 2 3 3 5 5 3 2 1 0 1 6 5 1 3 6 6 7 5 5 6 1 1 5 8 8 6 6 6 4 9 13 6 1 5 5 3 3 3 4 4 3 3 3 4 4 4 4 3 2 1 1 3 5 6 6 2 2 4 6 5 5 6 7
16 15 15 15 14 11 7 10 13 9 5 5 8 9 1 6 3 1 1 1 2 2 0 1 1 0 2 2 4 5 5 3 1 2 3 3 2 2 1 2 5 5 3 2 3 0 1 1 2 5 5 5 5 3 6 10 5 4 6 4 3 3 2 2 1 1 3 4 2 5 6 5 3 1 0 1 3 5 6 6 4 1 5 4 5 6 7 7
17 16 15 14 12 8 4 6 7 3 3 6 10 4 4 3 1 1 2 1 2 2 2 2 1 1 2 1 2 2 5 4 1 6 5 3 3 2 3 4 3 3 2 2 2 1 1 0 1 3 3 2 3 3 2 3 2 1 2 2 2 2 1 2 1 1 4 4 0 2 5 5 5 1 2 4 6 6 7 7 5 2 5 5 5 7 8 8
18 17 17 15 13 12 10 7 4 2 4 9 8 1 2 0 0 2 1 2 1 2 2 1 2 4 4 3 2 2 3 3 4 7 6 4 6 5 3 4 4 3 2 3 2 0 2 3 2 2 2 4 4 2 2 2 3 3 2 2 3 2 2 2 2 2 4 3 1 2 2 3 4 1 3 7 8 8 7 7 5 2 4 6 7 8 9 10
20 20 20 17 14 17 16 11 9 10 9 7 3 1 2 1 1 1 2 2 1 2 2 2 5 7 6 3 1 2 2 2 4 6 5 3 5 5 1 1 4 3 1 2 2 2 3 3 2 2 2 5 7 6 4 3 5 6 5 5 5 3 2 2 2 1 4 3 1 2 2 2 3 1 5 8 8 7 7 4 2 3 6 8 9 9 10 11
22 21 18 13 13 16 15 11 9 7 5 2 1 2 2 2 1 1 1 2 1 2 2 2 6 7 2 1 2 1 1 2 3 7 6 4 4 5 2 1 3 2 2 2 2 3 4 2 4 6 2 5 11 9 4 3 5 6 3 3 4 3 3 3 3 3 3 1 2 2 3 2 2 1 4 6 7 8 9 7 5 7 9 10 9 8 8 9
21 16 12 9 9 10 10 11 10 5 1 1 2 2 2 2 1 1 1 2 2 3 5 3 3 3 1 0 3 2 0 2 1 5 5 5 5 5 4 4 4 2 3 3 1 1 3 4 4 3 0 6 10 6 3 5 3 2 2 2 2 3 3 1 0 0 1 1 2 2 2 1 1 1 3 4 7 10 10 9 9 10 10 8 7 8 8 8
16 9 5 5 4 4 4 9 11 7 2 2 2 2 1 1 1 1 1 1 1 3 7 5 0 0 2 2 1 3 2 1 1 2 3 3 3 4 3 3 4 5 4 4 2 1 1 2 1 0 2 6 5 4 5 4 3 3 3 4 1 1 2 2 1 2 1 3 1 1 2 1 1 1 2 5 9 10 9 9 8 8 9 7 6 7 8 8
12 6 3 3 3 2 1 8 13 8 2 2 2 2 1 1 1 2 0 1 1 2 3 3 1 1 2 2 1 4 4 1 1 1 2 2 1 3 3 2 4 7 7 4 2 2 2 2 1 2 4 3 1 2 3 0 2 4 4 4 3 1 1 2 1 1 0 3 1 1 1 2 2 2 2 6 8 8 8 8 7 7 10 9 7 8 8 8
9 5 2 5 4 4 7 11 12 6 2 2 1 0 1 1 1 2 1 1 1 1 1 1 1 2 2 1 2 4 4 1 1 1 2 2 1 3 3 3 4 7 6 4 2 1 2 2 2 2 2 1 1 2 3 2 1 0 1 3 3 2 2 2 1 1 2 3 1 1 1 3 3 1 2 5 7 6 6 6 7 8 9 8 8 9 9 8
5 2 1 5 4 8 11 10 6 2 2 1 0 0 1 1 2 3 2 0 0 1 0 2 1 1 1 2 2 2 3 1 0 0 2 2 1 0 0 1 3 2 2 5 5 1 1 3 2 1 1 1 1 2 3 3 2 1 1 2 0 1 1 2 1 1 2 2 1 1 1 2 1 1 2 4 5 5 5 5 7 8 8 7 8 8 8 7
2 1 2 5 2 10 8 4 1 2 2 1 1 1 1 1 2 3 3 2 1 1 1 1 1 1 2 2 2 2 2 1 0 1 1 1 2 1 2 1 1 1 0 5 5 1 1 2 2 0 1 1 1 1 1 3 3 2 4 4 2 1 0 1 1 1 1 2 2 2 3 1 2 2 2 3 4 3 3 5 6 6 6 7 7 7 8 7
1 1 2 4 4 9 3 1 1 2 1 0 0 1 1 1 2 3 2 2 3 3 2 2 2 2 2 2 1 1 1 1 0 0 1 1 2 1 1 2 1 1 3 3 4 2 1 2 2 2 2 2 1 1 0 1 1 1 3 3 3 3 3 4 4 1 1 1 1 2 3 1 2 1 2 3 3 2 3 6 6 6 6 6 6 7 8 7
0 2 2 2 5 5 1 1 1 1 1 0 0 1 2 2 2 2 2 0 2 2 1 1 3 3 3 3 2 2 2 1 1 1 1 1 2 1 1 1 2 1 2 2 2 2 1 2 2 2 2 2 1 1 1 1 2 2 1 1 0 1 2 4 6 3 2 1 1 1 2 1 2 1 3 3 4 5 5 6 7 6 5 6 7 8 8 7
2 2 3 2 5 0 2 1 1 1 1 1 1 1 1 1 1 1 2 1 1 1 0 1 2 2 2 2 2 2 2 2 1 1 1 0 0 1 1 2 3 2 2 1 1 1 1 1 2 2 1 2 0 2 2 2 2 3 3 3 1 1 1 2 2 2 4 3 2 2 2 1 2 3 4 4 6 7 7 7 8 7 6 7 9 9 8 9
2 1 2 3 2 4 2 2 0 1 0 2 2 1 1 1 2 1 1 2 1 0 1 1 1 1 1 2 2 2 2 1 1 1 0 1 0 1 3 3 3 2 1 1 2 1 1 1 1 2 2 2 2 3 3 2 1 1 2 3 3 2 1 1 0 1 3 2 2 3 3 1 3 5 6 7 9 10 9 9 9 8 8 7 8 8 9 9
1 1 1 0 2 3 1 1 0 1 0 1 1 2 2 1 1 1 1 2 1 1 1 2 1 1 2 2 2 3 2 1 1 1 1 1 1 2 6 8 4 1 1 4 5 3 1 0 0 2 4 5 4 2 2 1 0 1 2 4 6 5 1 1 1 3 4 2 2 3 2 3 6 7 6 8 10 10 9 9 9 9 9 8 8 8 9 9
1 1 0 1 2 2 1 0 1 1 1 0 0 2 2 2 2 1 2 2 1 1 1 2 2 1 1 2 1 1 2 1 1 2 2 2 2 2 6 10 8 5 4 8 8 4 3 2 2 2 1 2 1 1 1 1 0 0 2 5 6 5 2 1 2 3 3 5 3 1 4 9 9 8 7 7 9 9 9 9 9 9 9 9 9 9 10 10
1 1 1 1 0 1 1 1 1 1 0 0 0 2 2 3 3 1 1 1 1 1 0 1 3 3 2 3 2 1 3 3 3 3 3 3 2 1 6 8 8 12 14 5 3 2 3 3 3 5 6 3 1 1 1 2 2 2 3 5 6 6 2 2 2 1 2 5 3 3 9 12 8 7 6 6 8 8 8 9 9 8 9 9 10 11 13 12
1 1 1 0 0 1 1 1 1 2 2 1 0 1 2 2 3 1 1 1 1 2 1 1 4 5 3 3 1 1 4 3 3 4 3 4 3 1 5 6 4 11 16 8 0 2 3 2 1 3 6 5 4 3 4 6 6 6 6 6 7 7 4 2 1 2 2 2 3 9 13 9 6 6 5 5 7 8 9 9 8 9 9 9 10 13 14 12
1 1 0 2 1 1 0 1 1 3 2 1 0 0 1 2 3 1 1 1 2 2 2 1 4 7 4 2 0 2 3 2 1 3 3 4 4 2 2 3 2 7 8 6 1 1 2 3 2 3 4 6 6 4 5 6 6 7 8 8 7 7 8 7 6 4 2 2 8 14 14 8 5 4 5 6 7 8 9 9 9 10 10 9 10 12 12 11
0 2 1 1 2 1 1 1 1 2 1 1 1 0 1 1 2 2 1 0 2 3 2 2 4 5 3 2 3 3 3 2 1 2 1 1 3 2 2 1 2 4 5 4 1 1 1 2 2 2 3 4 5 5 4 4 6 8 9 9 7 7 7 7 7 6 5 7 12 15 13 7 4 5 7 7 7 9 10 10 10 9 9 10 11 12 12 12
1 1 1 3 2 2 1 1 1 1 1 1 0 0 1 0 2 2 1 1 0 2 3 2 2 2 1 4 4 3 1 3 4 5 4 2 1 2 2 1 1 3 5 3 1 2 2 3 3 2 3 2 3 4 4 3 4 7 9 10 9 7 5 5 5 4 2 7 13 11 7 5 5 7 8 8 9 10 11 10 10 9 9 10 11 12 12 13
1 2 1 3 2 2 1 1 1 1 1 0 1 1 1 1 2 1 1 1 1 1 1 1 1 0 2 4 3 1 4 7 8 8 5 3 1 0 2 3 2 2 4 3 2 1 2 5 4 2 4 3 1 3 3 2 1 2 4 6 7 5 2 3 4 5 3 4 8 6 4 6 8 10 10 10 10 11 11 9 8 9 9 10 11 12 13 13
Wind_Direction
358 359 359 1 1 2 1 0 360 358 358 357 354 353 350 348 346 346 346 345 346 344 343 342 337 335 329 327 326 325 324 317 313 305 280 289 349 314 261 266 186 174 161 154 153 142 125 129 126 126 137 117 67 153 161 256 127 196 181 204 233 219 199 186 191 179 290 334 332 332 354 342 330 338 339 292 276 120 190 303 317 319 9 14 121 129 141 148
355 357 359 359 360 1 360 359 358 358 357 355 354 351 349 347 344 345 345 345 346 344 345 343 340 338 330 332 332 325 322 316 304 283 264 6 16 335 262 185 176 170 158 157 157 145 134 137 139 139 130 124 184 137 172 182 183 204 135 226 232 187 194 181 193 218 290 320 324 323 340 330 322 322 324 320 323 299 234 261 319 294 61 100 123 132 143 149
354 356 357 358 359 358 357 357 356 357 356 354 352 350 348 346 344 344 343 345 346 346 346 343 342 339 334 336 332 325 321 315 300 271 312 14 359 334 204 166 170 167 162 166 164 157 150 149 148 142 116 135 144 146 176 166 198 196 189 235 221 147 231 196 218 264 276 296 313 317 324 310 310 298 302 321 313 277 245 239 258 256 174 125 129 139 146 149
352 354 355 356 356 356 356 355 354 354 353 352 350 348 345 344 345 342 342 344 343 346 347 344 342 340 340 337 333 331 322 302 256 125 9 348 348 339 182 165 165 164 164 168 165 161 149 142 141 129 121 139 108 163 178 183 195 172 212 234 121 119 233 193 228 266 276 271 304 310 312 309 314 299 283 307 308 287 262 221 215 222 159 135 130 139 140 135
350 351 353 354 353 354 353 352 352 352 351 349 347 345 343 343 343 341 341 341 341 344 346 344 340 340 343 341 341 335 320 240 134 325 338 337 342 341 171 164 164 155 153 163 152 144 142 135 133 108 121 142 145 167 185 198 179 197 231 215 115 222 282 283 266 262 272 287 303 302 309 317 320 290 268 282 284 282 349 233 218 170 125 131 130 135 132 121
347 349 351 351 351 350 350 350 349 349 348 346 344 343 343 343 340 339 340 339 339 339 342 343 339 340 346 351 352 343 325 254 319 322 327 331 344 108 157 163 166 152 143 153 136 135 136 130 151 147 150 147 164 171 175 194 193 238 240 191 193 242 271 269 275 271 290 296 291 299 310 324 315 305 285 245 250 261 14 15 203 125 121 129 133 132 125 124
345 348 349 350 349 347 348 347 346 346 343 342 342 342 342 340 338 337 337 336 337 335 339 344 340 341 352 357 353 18 27 269 312 327 321 328 24 144 154 160 167 159 147 146 132 136 136 139 163 153 158 145 174 180 164 184 207 243 242 50 237 224 244 253 266 279 294 274 275 292 303 307 296 311 342 267 263 298 17 72 115 123 125 126 125 115 115 115
344 345 346 347 347 345 346 343 344 343 339 340 340 339 337 336 336 334 335 334 333 332 335 342 343 345 1 10 5 3 251 262 323 335 323 345 136 150 148 150 164 164 157 155 145 147 144 154 164 150 173 164 179 178 163 182 204 238 242 299 265 246 250 259 268 274 272 266 273 275 283 280 268 299 298 281 313 54 85 115 121 125 123 121 116 112 119 117
342 343 344 345 345 344 343 341 341 339 338 338 335 334 331 333 336 333 333 332 330 328 331 340 341 345 5 23 36 327 266 279 358 8 12 122 152 150 141 148 162 164 160 162 157 157 158 169 172 177 189 158 175 176 170 196 207 230 237 252 263 272 271 269 268 268 272 267 251 259 278 274 268 306 271 284 52 93 120 123 128 127 123 121 119 122 129 129
339 341 341 342 342 341 342 341 339 336 336 334 332 330 327 332 334 332 329 326 325 321 324 335 334 340 355 15 68 316 284 52 47 56 55 117 157 153 146 155 166 164 152 157 165 166 169 177 174 189 180 139 169 169 168 201 216 202 223 251 255 273 280 265 270 273 291 268 222 245 279 285 318 307 258 68 90 126 127 129 136 132 129 128 128 134 139 141
338 339 339 339 339 339 340 339 337 334 332 331 329 325 326 331 330 326 322 317 314 313 319 330 330 348 30 48 120 254 265 166 123 71 66 107 147 160 162 166 171 169 153 148 180 180 171 175 171 156 167 155 160 163 189 208 295 263 246 278 259 276 273 233 258 272 293 268 215 217 266 283 326 252 260 64 113 140 128 138 142 137 136 130 132 141 149 149
337 337 338 337 337 338 338 337 335 331 329 328 325 325 327 329 325 319 313 307 304 301 303 314 320 5 69 43 225 238 243 197 185 163 128 127 134 169 194 194 185 181 169 160 193 194 187 180 176 163 136 161 152 156 205 201 282 274 278 290 285 317 302 236 246 276 242 261 191 187 263 261 223 237 341 59 139 143 134 144 141 142 143 134 137 145 156 157
336 336 336 335 336 337 336 334 333 331 328 326 324 326 329 327 321 312 306 301 295 287 276 273 278 159 85 248 235 242 244 230 223 219 209 204 224 248 239 224 203 197 193 177 175 194 197 186 180 179 149 170 159 134 153 136 276 273 227 268 305 320 313 30 75 316 253 251 168 187 265 261 230 255 349 71 155 148 140 147 144 148 148 145 148 151 165 167
335 335 335 334 335 335 334 333 332 330 326 325 324 327 330 325 316 308 304 297 281 254 212 167 177 140 130 257 265 275 250 235 238 236 233 238 248 254 223 210 204 205 209 194 150 186 203 192 163 179 167 197 201 146 141 27 347 301 249 191 347 290 302 16 23 303 316 37 155 209 245 284 276 297 6 100 164 159 152 154 154 158 156 157 156 157 168 172
334 335 334 335 334 333 334 332 330 328 324 324 324 329 329 322 317 314 306 294 249 170 158 155 165 139 184 275 282 289 244 226 238 245 248 240 224 214 205 196 195 202 207 202 173 65 185 186 174 179 173 272 254 249 331 9 49 2 267 214 64 234 307 344 341 11 3 27 26 219 237 295 283 306 1 126 170 172 164 161 161 167 167 164 164 166 169 172
334 333 334 334 333 332 332 331 329 326 323 323 327 331 330 329 339 334 320 115 118 137 144 145 163 167 268 281 308 316 233 220 242 252 247 226 210 195 181 172 168 187 196 201 193 92 139 165 152 140 163 196 191 41 35 253 185 48 278 243 305 255 296 342 90 61 351 355 20 355 279 302 266 285 7 134 170 181 174 172 170 176 179 174 174 175 173 174
333 333 334 332 332 332 331 330 328 326 324 326 332 333 336 18 32 35 86 106 108 122 128 119 144 185 266 264 265 277 250 233 258 260 201 210 204 179 149 143 134 163 168 153 175 146 126 153 156 112 65 70 140 128 204 232 226 178 253 247 264 241 259 328 190 77 10 9 14 360 294 282 276 287 357 152 172 183 183 186 180 181 188 187 184 185 185 182
331 332 331 330 330 329 329 329 327 327 325 326 334 338 61 82 68 76 99 108 101 107 118 93 135 206 252 233 250 264 273 297 305 298 263 188 187 175 145 132 129 136 137 97 137 160 143 156 152 155 153 154 173 188 206 220 212 196 209 232 244 208 198 283 270 335 4 349 324 318 277 274 283 281 262 169 169 185 194 196 192 190 195 197 193 193 196 191
331 330 329 328 328 327 328 328 327 327 324 326 338 43 112 92 87 97 106 115 114 129 173 176 184 224 345 249 272 297 315 308 299 278 196 158 169 168 130 122 129 128 144 152 157 187 166 125 142 192 196 183 181 196 208 195 149 158 171 228 254 260 231 194 277 292 342 323 304 297 280 284 291 285 304 102 162 190 199 200 202 200 201 205 203 199 203 205
330 329 327 327 326 326 327 327 327 325 320 323 335 126 124 90 104 114 127 196 215 236 296 189 194 262 306 263 283 316 316 313 308 214 159 157 158 151 116 115 128 128 150 159 159 174 172 172 191 199 175 162 182 197 198 169 132 135 171 241 249 259 272 195 266 268 218 291 286 280 276 272 276 281 322 76 163 193 201 206 207 206 208 209 211 208 207 213
329 328 326 326 326 326 328 328 327 324 317 310 299 194 188 152 89 328 270 240 230 231 250 226 203 241 253 239 32 27 9 331 311 224 167 155 151 154 158 152 158 162 153 127 124 107 185 204 202 179 157 156 179 178 158 143 154 200 227 259 265 248 264 247 262 282 224 241 262 255 275 271 270 284 311 60 180 201 203 207 207 207 211 210 213 213 208 213
327 326 325 326 327 327 329 330 328 329 333 328 259 281 206 142 101 285 277 281 263 224 238 242 233 251 253 268 281 332 19 279 273 248 178 155 162 177 164 154 175 171 129 122 129 130 193 216 200 166 156 121 98 140 151 155 176 205 220 261 270 251 288 252 252 299 212 215 257 270 279 279 287 300 297 292 215 219 214 212 213 209 209 210 211 209 203 209
326 326 326 327 328 327 329 329 324 330 21 1 311 270 171 69 335 259 230 287 289 248 230 226 234 254 250 242 227 191 197 231 246 252 183 167 177 177 153 163 179 150 145 176 177 169 191 229 193 162 155 128 104 137 147 144 182 197 210 242 259 214 9 254 234 53 197 226 272 285 287 283 291 307 277 272 268 257 237 227 228 221 216 212 209 206 201 207
326 326 326 327 329 327 328 327 312 263 334 322 293 235 167 10 345 246 201 270 283 284 228 207 217 237 230 219 182 172 191 207 205 229 178 167 146 145 165 165 157 158 184 185 181 188 198 245 135 140 160 158 139 142 154 182 225 210 215 232 248 217 219 238 270 350 270 246 245 257 272 269 276 296 254 230 282 267 243 232 231 228 227 223 213 210 206 208
326 325 326 328 329 328 327 323 292 256 315 310 217 147 122 344 343 183 198 312 270 281 229 193 211 221 215 183 168 176 185 204 219 207 168 171 155 141 165 147 163 191 189 162 162 206 212 157 131 135 165 177 159 169 185 200 229 238 217 219 227 225 221 220 188 340 284 247 166 237 262 245 128 280 254 239 280 269 248 233 230 225 224 224 219 213 206 207
326 324 325 328 328 331 332 321 275 303 316 271 165 136 6 332 322 184 192 4 267 281 202 182 217 195 178 147 160 178 165 213 232 180 175 182 162 142 152 138 211 201 168 144 155 225 205 162 161 155 161 173 180 205 198 188 214 268 222 207 215 221 220 199 159 194 259 268 82 314 280 271 285 262 246 260 282 269 255 240 235 229 222 221 221 214 206 203
324 322 323 325 328 336 339 299 301 310 303 184 176 202 330 326 274 183 203 16 270 269 138 271 255 173 177 162 165 176 172 304 292 166 188 189 164 140 167 161 167 164 141 139 190 218 149 153 168 162 154 163 193 225 193 175 189 254 191 182 193 203 207 188 178 204 248 315 281 195 254 264 275 260 229 291 289 274 257 245 241 235 226 223 221 216 206 199
321 321 320 319 322 323 304 286 298 287 204 160 198 296 323 319 171 176 228 53 259 304 100 15 143 148 95 134 179 215 277 340 356 168 192 186 175 59 182 185 176 158 151 171 198 187 134 173 179 164 158 181 208 210 167 171 201 248 162 162 173 187 194 176 183 209 216 291 257 169 173 244 258 244 174 311 290 292 351 356 256 221 228 227 219 208 193 190
319 318 315 315 314 307 287 266 262 251 248 310 314 319 323 174 159 157 44 127 248 14 84 150 127 123 61 115 206 257 305 328 306 48 119 179 197 27 183 190 154 146 161 198 209 162 115 204 188 164 171 203 209 182 160 176 204 186 135 127 116 128 131 154 191 197 163 244 251 159 176 247 270 255 244 336 307 319 352 6 22 156 204 227 202 170 162 164
317 313 311 313 309 307 293 254 253 259 265 303 328 330 340 151 156 50 90 224 294 23 42 203 105 349 34 120 227 246 248 275 14 106 129 160 188 25 87 107 102 133 157 270 247 172 33 231 167 175 192 205 199 163 166 181 174 108 133 124 94 106 97 125 161 159 194 241 244 163 192 237 273 280 30 350 346 331 322 332 351 140 178 187 159 145 141 134
313 308 307 304 297 295 291 265 265 240 218 318 337 347 145 136 33 102 145 262 312 3 354 359 355 303 343 311 275 231 216 241 134 146 155 161 162 122 127 128 102 121 151 248 252 288 326 219 171 214 195 152 166 154 155 191 179 121 144 142 131 138 127 137 124 159 226 248 130 174 208 221 241 236 57 342 343 339 310 300 314 280 182 165 145 144 137 126
309 306 300 290 277 260 246 246 263 260 299 326 337 17 147 125 219 170 258 299 348 356 345 342 312 313 329 307 248 209 189 190 175 167 162 172 175 165 164 165 157 153 181 213 210 323 263 231 242 278 211 178 190 182 129 149 197 200 184 187 194 174 151 197 204 192 238 253 129 172 204 215 245 289 18 346 348 349 328 300 284 254 178 159 134 131 129 125
308 306 299 287 265 246 241 248 263 277 302 324 341 73 84 103 209 212 313 330 58 355 322 297 307 302 303 308 262 230 200 172 180 173 155 155 179 173 93 80 159 163 154 186 185 206 231 245 237 249 242 192 191 211 204 168 185 187 181 189 188 164 156 199 197 213 260 263 90 134 171 226 254 23 15 353 358 7 6 347 238 162 144 142 126 120 125 131
311 308 301 286 259 248 247 247 249 264 298 330 84 81 109 153 228 152 36 326 294 319 313 308 313 303 281 318 328 307 199 205 168 160 155 145 169 186 177 140 173 137 88 149 175 199 216 257 199 189 200 174 187 212 218 137 161 178 171 186 193 187 190 210 209 223 252 238 84 128 174 223 231 76 17 360 18 31 38 57 107 120 120 128 126 121 124 133
318 313 299 283 263 260 251 230 221 221 243 54 81 100 150 186 253 117 107 285 292 321 311 302 305 309 350 308 313 349 242 247 134 146 161 159 169 186 186 185 186 152 139 175 193 176 215 268 236 205 104 173 186 196 140 120 150 165 145 183 227 220 179 129 272 211 270 226 116 170 217 286 257 51 17 20 40 40 39 56 90 112 122 130 131 125 122 128
326 328 309 291 274 288 259 210 196 193 191 90 97 146 196 219 214 145 136 288 319 327 315 318 5 349 345 321 315 353 336 307 102 153 168 167 179 176 178 187 179 176 175 178 190 158 187 269 268 330 219 197 193 169 158 186 178 136 179 195 206 278 137 120 107 66 351 248 191 168 250 298 226 201 54 49 46 40 33 43 71 108 122 122 117 121 118 117
334 349 7 355 344 348 150 167 167 169 150 88 116 176 236 226 191 185 195 318 313 343 338 338 8 21 348 318 311 331 327 10 94 228 167 164 203 166 179 196 173 192 199 190 218 217 208 260 280 205 202 207 271 141 134 216 141 141 195 182 127 66 87 114 194 104 167 236 217 117 262 262 221 192 78 52 40 28 28 45 65 93 103 103 99 107 105 99
328 332 1 9 21 100 122 140 152 150 96 81 106 219 237 186 186 231 251 343 306 12 30 256 302 10 24 312 302 324 325 349 22 281 158 179 246 146 163 186 183 201 202 181 205 224 205 256 280 219 197 61 31 164 126 90 119 161 200 142 138 207 184 152 202 186 199 225 213 147 241 255 234 171 62 50 34 7 11 54 86 94 94 92 86 91 97 94
318 311 22 7 42 125 127 133 144 111 73 108 191 219 226 236 253 238 221 108 97 108 282 241 250 352 344 298 276 302 327 346 355 288 157 188 252 106 22 206 185 213 200 180 188 155 153 247 253 194 216 28 68 204 182 161 147 75 139 148 60 281 209 176 181 206 221 215 192 191 208 221 206 49 27 32 30 357 353 54 94 107 106 100 89 88 95 98
308 189 33 358 103 139 131 127 112 36 86 149 214 165 214 247 267 251 216 196 208 209 246 234 206 275 291 283 265 274 324 348 271 255 193 171 176 186 331 319 172 53 79 193 198 129 109 223 237 236 277 252 193 220 218 182 170 165 179 183 172 123 79 182 130 36 264 202 165 208 217 146 70 29 358 20 34 16 29 79 90 89 93 101 110 114 113 112
302 141 29 353 144 149 138 61 42 43 103 159 217 174 260 296 290 289 255 184 206 234 253 230 230 260 276 284 280 268 293 307 282 246 209 186 181 183 358 326 247 141 123 165 192 192 159 181 207 244 272 249 187 66 65 210 204 184 201 207 188 163 160 194 196 133 318 230 161 209 218 108 64 11 14 43 68 80 94 105 90 62 64 85 105 114 110 108
214 127 347 332 151 157 311 41 60 25 136 73 302 212 296 322 291 293 327 117 211 233 259 241 246 247 236 249 265 262 279 290 264 271 244 196 195 202 117 341 278 191 138 159 170 169 144 134 175 212 262 272 296 57 66 111 105 114 123 352 86 178 186 214 216 180 150 173 101 204 234 99 78 90 81 89 112 106 93 96 91 75 74 83 82 81 83 80
142 79 360 143 150 345 338 103 35 347 163 330 320 233 247 288 270 291 347 353 270 231 247 252 244 235 228 244 267 262 268 275 244 248 300 49 172 267 317 290 248 197 129 136 115 108 139 133 170 192 259 301 9 95 91 101 121 115 65 45 18 279 281 253 250 173 160 164 144 186 209 162 102 103 109 108 95 83 70 69 78 75 64 64 65 61 62 63
138 60 54 145 190 323 345 134 42 353 280 334 346 317 296 249 243 286 323 316 314 284 285 270 231 260 288 275 277 278 274 273 259 238 60 73 89 343 360 343 250 214 177 162 153 167 221 171 158 163 153 153 155 151 151 147 115 75 52 30 360 9 89 208 282 142 184 181 167 206 206 127 115 123 115 99 83 70 60 59 66 68 62 58 61 59 58 61
115 87 56 76 320 340 66 143 117 143 259 344 355 343 342 287 242 251 251 270 282 236 258 283 262 251 296 297 276 282 290 260 278 328 76 79 22 2 4 0 341 273 158 127 125 128 138 73 164 181 191 191 174 170 188 178 99 62 43 17 17 26 8 234 152 179 208 179 158 211 179 121 131 125 101 89 88 78 66 65 66 68 70 68 68 68 65 63
132 107 27 355 11 42 78 48 96 135 163 174 144 2 3 327 313 275 202 221 282 296 287 316 316 271 318 341 315 301 337 328 325 16 51 37 12 352 355 4 10 9 50 100 107 106 105 71 36 79 149 217 160 85 335 343 137 172 8 9 12 7 329 240 167 198 191 155 168 262 127 139 141 122 98 85 86 82 72 70 71 72 73 73 74 75 73 68
131 109 138 167 28 49 66 30 69 93 101 183 65 17 345 318 324 301 190 193 290 315 241 83 19 27 10 339 330 344 345 351 20 18 11 7 355 311 347 5 22 3 354 21 96 83 101 93 36 59 66 48 33 27 2 46 81 74 28 13 8 5 354 190 195 271 145 155 185 169 141 142 131 111 110 101 90 89 81 74 76 77 76 79 81 78 74 68
124 133 153 221 191 115 89 56 102 103 92 95 69 21 342 336 351 342 294 311 317 335 342 95 26 21 352 294 277 16 351 358 32 12 2 360 346 2 356 341 8 6 345 324 314 88 109 107 27 82 79 59 42 66 98 97 88 71 52 39 25 24 45 91 38 337 295 239 173 149 143 131 105 100 101 94 96 97 91 85 85 83 79 80 79 77 73 66
59 125 56 344 89 133 89 62 106 111 90 46 42 42 334 352 3 343 257 303 348 3 13 25 1 359 349 300 221 55 3 359 36 6 14 8 345 30 41 308 334 18 339 297 305 70 110 94 111 132 88 48 29 49 102 115 100 73 52 44 45 53 68 73 56 32 30 98 125 127 119 92 77 100 88 83 99 103 97 89 81 77 78 77 74 73 74 71
67 142 139 48 86 81 56 69 75 112 84 7 43 125 235 260 356 343 260 271 9 1 10 29 351 342 360 32 66 83 32 355 321 312 350 27 338 4 61 25 15 359 304 277 312 351 125 121 147 141 97 47 16 31 74 106 104 84 59 39 35 52 67 64 46 32 54 101 115 114 105 88 80 102 99 97 100 95 89 82 73 69 70 74 73 71 72 73
72 86 135 117 90 1 4 63 41 108 77 359 67 183 265 271 344 327 270 216 125 351 356 8 332 318 38 49 64 91 5 304 267 262 255 235 332 9 29 8 22 335 310 309 332 345 71 133 164 147 125 111 6 18 40 57 101 90 59 25 10 18 46 54 39 11 27 125 126 118 113 120 126 117 105 94 88 84 78 73 73 70 64 65 69 68 65 64
108 49 72 106 86 345 359 79 52 98 108 288 250 264 288 317 322 302 243 245 223 229 296 283 241 191 33 11 25 41 301 288 271 264 258 244 234 89 286 301 338 313 292 306 331 347 113 144 157 148 143 141 17 358 6 348 190 113 41 0 343 343 8 59 45 14 7 128 137 130 122 132 136 128 111 94 82 77 71 67 69 71 69 68 68 67 64 60
Height
800 799 798 797 797 796 795 795 795 794 794 793 793 793 792 792 791 790 789 788 787 786 785 784 783 782 780 778 777 776 774 773 771 771 769 764 762 762 762 763 764 765 767 768 769 771 774 777 778 779 780 781 783 783 784 784 784 785 790 797 793 789 789 787 786 785 784 781 778 776 776 778 773 767 763 761 762 763 764 763 761 759 759 759 758 758 760 764
800 798 797 797 796 795 795 794 794 793 793 793 792 792 791 791 790 789 788 787 786 785 784 783 782 780 779 777 776 775 773 771 770 769 765 762 762 762 762 763 764 765 766 767 768 769 772 776 778 779 780 782 784 784 785 784 784 787 794 796 787 785 786 784 783 783 782 780 777 776 776 777 774 770 765 765 766 764 765 764 763 763 761 761 760 761 763 765
799 798 797 796 795 795 794 794 793 793 792 792 792 791 790 790 789 788 786 785 784 784 783 782 781 779 778 776 775 774 772 771 768 764 762 761 761 760 761 762 763 765 766 767 768 768 770 773 776 778 781 783 785 786 786 785 785 787 792 791 784 784 785 784 784 782 781 779 778 776 775 775 772 769 766 766 767 765 765 764 764 766 764 765 763 763 766 768
798 797 796 796 795 794 794 793 793 792 792 791 791 790 790 788 788 787 785 784 783 782 781 781 780 778 777 775 774 773 772 770 764 761 761 760 760 759 759 761 763 765 766 767 769 770 770 773 776 778 780 784 787 787 787 785 785 788 788 785 783 786 784 782 782 780 778 778 779 776 774 773 768 768 767 766 768 764 761 758 759 762 763 767 768 768 770 773
798 797 796 795 795 794 793 793 792 792 791 791 790 789 788 787 786 785 784 784 782 781 780 780 779 777 776 775 774 773 772 769 763 760 760 759 758 758 758 760 763 765 767 768 770 771 772 774 776 779 781 785 788 787 787 784 784 786 783 781 784 786 784 780 779 779 777 777 778 776 774 771 767 768 765 766 768 761 755 754 754 757 761 766 769 770 772 776
798 797 796 795 794 794 793 793 792 791 791 790 789 788 787 786 785 784 783 782 782 781 780 779 778 777 775 774 774 772 771 768 761 760 759 758 758 757 758 760 763 765 767 768 770 772 773 775 777 780 781 784 788 786 786 784 784 785 780 780 783 783 783 779 777 776 776 778 777 775 773 771 770 766 763 764 763 755 753 754 754 756 759 764 768 770 772 775
798 797 795 794 794 793 793 792 791 790 790 789 788 786 785 784 784 783 782 782 781 780 779 779 777 776 775 774 773 773 773 767 760 759 759 758 758 757 759 761 763 765 767 769 770 772 773 776 777 780 781 784 787 785 784 784 783 784 781 781 781 780 781 777 775 775 776 777 775 774 772 771 771 766 764 760 755 753 755 754 754 756 759 764 768 770 773 775
798 797 795 794 793 793 792 791 790 790 789 787 787 786 785 784 783 782 781 781 780 779 779 778 777 776 774 774 773 772 771 765 760 759 758 757 758 758 759 761 764 766 768 768 769 771 773 775 776 779 781 782 784 783 784 784 784 783 782 781 779 778 777 775 776 775 775 775 773 774 772 770 768 766 764 757 753 756 756 754 755 758 761 766 769 772 773 774
797 796 795 794 793 792 791 790 790 789 788 787 785 785 784 782 782 781 780 780 779 779 778 777 777 775 775 775 774 772 766 761 760 759 757 757 758 759 760 762 765 766 768 769 769 770 772 774 775 776 778 779 781 781 782 784 783 780 779 779 777 776 775 775 775 773 773 774 772 773 770 766 765 766 761 755 756 758 755 756 757 760 764 768 771 772 773 774
797 796 795 794 793 792 791 790 789 788 787 786 784 783 782 781 781 780 779 779 778 778 777 777 777 776 776 774 775 772 762 760 761 759 758 758 759 760 762 763 765 766 768 769 770 770 771 772 773 773 775 778 780 780 781 782 779 776 777 777 776 776 775 775 773 772 773 772 771 771 769 765 765 766 761 756 759 757 755 759 759 762 766 769 772 772 772 773
796 796 795 794 793 792 790 790 788 787 786 785 784 782 781 780 779 779 778 778 777 777 776 777 777 776 776 775 776 771 761 760 761 760 760 760 761 762 762 764 765 766 767 769 770 770 771 771 772 773 775 776 778 781 780 777 775 775 776 776 776 775 774 774 772 772 772 770 768 769 768 766 767 766 760 759 760 756 757 760 761 764 767 770 772 772 772 772
796 795 794 793 792 791 790 789 788 787 785 784 782 781 780 779 778 777 776 776 776 776 776 776 777 776 777 776 773 765 759 760 761 760 761 761 762 763 763 764 765 766 767 768 770 770 771 771 771 773 775 774 778 782 778 775 775 774 775 778 776 773 772 772 771 772 772 768 764 767 770 768 766 762 757 761 761 757 758 759 763 766 768 771 773 773 773 772
795 794 794 793 792 791 790 788 787 785 784 782 781 780 779 778 777 775 774 774 774 775 775 776 777 777 778 773 763 758 758 760 760 760 760 760 762 763 763 764 765 766 767 768 769 769 771 771 772 773 773 774 777 778 775 774 775 774 776 779 778 777 775 771 773 773 771 768 763 768 776 771 762 757 756 762 761 760 761 760 764 767 768 771 773 774 773 773
794 793 793 792 791 790 789 788 786 784 783 781 780 778 777 776 775 773 772 772 772 774 774 776 776 777 778 768 756 756 758 758 759 758 758 759 761 762 762 763 765 766 767 768 769 769 770 771 772 773 773 774 774 773 775 777 778 778 777 780 785 785 778 770 772 773 768 767 763 766 777 770 759 756 758 762 761 761 763 761 764 767 769 770 771 773 773 774
793 792 792 791 790 789 788 787 785 784 782 780 779 777 776 775 773 772 771 770 771 772 773 776 776 777 777 765 754 755 755 756 756 754 756 758 759 760 761 762 764 766 767 768 768 769 770 771 772 773 774 773 772 775 779 780 780 783 782 784 788 788 781 773 772 774 770 767 764 767 775 769 759 758 759 762 762 762 763 763 765 767 768 769 770 772 772 773
792 791 790 790 789 787 786 786 784 783 781 779 777 776 775 773 772 771 770 770 771 772 773 775 775 777 773 761 754 754 753 754 753 752 754 755 757 758 759 762 764 766 767 768 768 769 769 771 773 774 773 773 775 778 782 783 784 787 786 785 787 787 785 777 773 775 772 768 766 768 773 768 760 758 759 762 763 763 764 764 766 767 767 768 769 770 771 772
791 790 789 789 787 786 785 784 783 781 779 777 776 775 774 773 772 771 770 771 771 772 774 774 776 777 767 756 754 754 752 752 751 752 752 753 756 757 759 762 765 766 767 767 769 769 770 772 774 775 775 778 779 780 786 790 788 788 788 786 787 788 788 783 775 774 772 770 770 771 772 767 758 757 760 762 763 765 764 764 765 767 767 767 768 769 769 769
790 789 788 787 786 785 784 783 782 780 778 777 775 773 773 772 772 772 771 771 772 774 774 774 776 772 760 754 754 753 751 751 751 751 752 752 755 757 758 760 763 765 767 768 769 770 771 773 775 777 779 782 782 782 787 789 785 786 786 785 787 789 790 788 780 774 772 772 772 773 772 765 757 756 759 761 764 766 765 763 764 766 766 766 767 768 767 766
789 788 787 786 786 784 783 782 780 779 777 775 774 773 772 772 773 772 772 773 772 769 766 768 769 761 754 754 753 751 751 751 750 750 751 752 754 756 757 758 761 765 767 770 771 771 771 774 778 778 779 781 781 780 781 781 780 781 783 784 786 786 786 787 782 775 774 775 772 771 770 765 759 754 757 762 764 767 766 763 764 766 766 765 765 767 766 765
788 787 786 785 784 783 782 780 779 778 776 774 774 773 772 772 770 770 772 772 766 759 756 759 759 754 752 753 751 751 751 750 750 750 750 751 753 756 757 759 762 764 767 770 772 772 772 776 778 775 776 778 778 777 777 779 780 781 783 785 785 785 785 785 782 773 773 778 772 768 770 768 762 755 757 764 765 767 767 764 764 765 765 764 764 766 765 764
787 786 785 784 783 782 780 779 778 776 774 773 773 772 770 769 768 768 768 764 757 756 755 754 755 753 749 750 751 752 753 752 750 749 750 750 751 755 758 760 763 767 770 771 772 773 773 777 775 772 773 774 775 777 779 781 783 782 782 783 783 785 785 782 779 774 775 779 772 769 772 765 759 757 759 764 765 764 764 763 762 761 762 762 762 764 765 764
786 784 784 783 781 780 778 778 776 774 773 772 773 772 769 769 769 769 769 762 755 754 754 753 755 751 748 751 753 753 757 756 751 748 749 750 751 755 758 761 765 768 772 772 772 776 778 776 772 772 774 775 778 781 781 781 783 783 783 784 783 783 785 781 778 778 777 778 773 771 772 763 757 761 762 765 765 761 760 759 758 757 757 759 758 760 764 764
784 783 782 781 780 779 777 776 775 774 773 772 773 771 770 770 769 769 770 767 759 752 751 753 753 750 749 752 750 752 757 755 751 747 746 749 751 753 756 761 765 768 771 771 770 777 778 772 768 772 774 774 780 784 782 782 783 784 783 784 783 784 787 782 778 780 777 777 774 772 773 765 760 763 762 764 766 763 760 757 755 755 754 754 755 757 761 763
783 782 781 780 779 777 776 775 774 773 773 772 772 770 770 770 769 769 769 767 761 752 749 749 749 748 747 746 745 748 751 750 748 744 741 745 749 752 753 757 764 768 768 767 769 773 772 769 769 774 774 772 778 784 783 782 781 783 783 781 781 782 783 778 778 779 776 776 777 776 776 767 763 766 762 761 765 762 760 758 755 754 752 752 755 757 760 761
782 781 780 779 778 776 775 774 773 773 772 771 770 769 770 769 768 769 768 766 761 751 747 747 747 744 741 742 744 744 746 745 741 738 739 741 744 750 753 755 760 765 767 769 772 771 768 770 771 774 776 774 776 781 781 779 779 782 781 776 776 775 775 777 780 782 779 778 777 777 778 769 764 766 762 761 763 761 759 759 755 751 752 753 755 757 759 761
781 780 778 778 777 775 774 773 773 773 771 770 769 768 769 768 768 768 768 768 760 747 744 745 744 740 737 742 744 743 747 743 735 735 738 738 738 743 751 756 757 760 766 769 771 769 767 769 769 770 774 776 776 777 777 777 780 781 773 768 770 771 774 779 781 782 781 779 777 777 779 775 765 758 757 760 762 760 759 760 756 752 752 754 755 756 758 761
779 778 777 777 777 776 775 773 773 772 770 768 767 768 768 767 767 767 767 768 759 744 743 745 742 739 737 740 742 744 747 741 734 735 736 736 738 739 748 756 757 759 763 767 771 768 765 770 771 770 772 776 776 773 773 774 777 776 768 766 770 772 775 779 779 779 777 775 777 777 776 778 771 756 755 762 761 758 758 759 758 755 754 755 756 756 757 760
778 777 776 776 776 776 776 775 773 771 768 767 767 768 767 765 767 766 767 768 755 740 740 742 739 737 738 741 742 742 742 739 738 738 734 736 738 739 747 751 752 756 758 762 768 765 762 767 768 768 771 774 769 765 768 771 770 767 766 769 769 770 773 774 776 777 779 780 778 775 775 779 771 755 756 764 762 759 758 758 759 757 756 757 757 758 759 761
777 776 775 775 775 775 775 774 772 769 766 766 767 766 765 765 765 765 769 767 751 739 738 738 737 738 740 744 744 742 741 739 739 738 735 737 738 738 746 747 748 755 756 756 760 761 760 761 759 762 766 765 760 760 763 766 765 763 766 770 769 771 774 774 775 775 782 785 777 772 774 776 767 752 753 763 763 761 759 756 756 755 756 758 759 761 762 763
775 774 774 774 774 773 773 772 768 766 766 766 766 764 764 764 764 769 773 764 750 743 740 737 739 742 743 746 745 743 743 740 738 738 738 738 738 739 743 745 748 755 758 757 758 759 759 758 758 758 757 755 755 760 764 762 762 764 766 766 769 773 774 776 777 775 781 782 774 771 771 774 770 756 756 764 763 764 763 758 756 755 757 759 761 763 763 765
773 773 773 773 773 772 772 769 764 764 765 765 764 763 763 764 768 774 771 758 751 748 742 742 744 743 745 748 746 742 743 742 738 739 741 740 741 742 744 747 751 757 763 763 762 762 760 760 759 753 751 753 754 759 765 764 762 764 764 765 770 774 774 777 777 778 783 780 774 776 775 775 770 759 761 766 764 766 766 761 760 758 758 760 762 763 763 765
771 771 771 771 771 771 769 765 763 764 764 763 764 762 763 768 772 773 764 753 754 753 748 749 747 744 747 749 746 742 741 741 739 738 740 741 742 743 744 747 752 761 769 767 764 764 761 758 755 751 749 751 752 758 765 766 765 766 766 769 774 777 781 783 780 781 782 774 774 781 779 775 766 757 764 769 767 768 765 762 762 759 758 761 764 764 764 766
768 767 766 766 766 766 764 763 763 763 762 763 762 760 765 772 772 769 763 758 757 755 752 752 749 746 748 745 741 740 739 738 737 737 739 741 743 744 744 746 746 751 763 769 768 766 762 757 755 755 751 746 749 756 759 762 765 765 765 768 771 778 789 791 787 789 783 772 774 781 778 772 762 760 767 770 769 767 763 762 760 758 759 762 765 765 765 767
765 764 762 761 761 760 760 761 762 762 762 762 760 762 769 773 770 766 766 764 759 756 754 754 751 747 745 742 738 738 739 738 736 736 739 742 747 749 747 748 747 746 755 767 769 766 767 763 753 751 749 743 745 747 746 753 761 761 759 760 763 765 774 780 778 777 775 770 775 780 775 768 761 763 769 767 766 764 762 762 760 760 763 764 766 766 766 767
761 760 759 758 758 757 758 759 761 762 762 760 760 765 769 769 769 769 768 765 761 760 756 754 753 747 743 742 740 737 737 738 738 737 739 742 745 748 746 746 748 748 752 763 767 766 769 762 745 742 746 742 741 739 740 749 759 762 759 760 762 753 753 771 779 776 774 770 774 777 773 766 763 765 767 764 763 764 765 765 763 764 766 765 766 766 766 766
759 758 757 757 756 756 756 757 759 761 761 760 762 767 768 766 768 769 766 763 763 763 759 752 750 748 747 745 742 739 735 736 739 739 741 742 742 744 745 742 744 746 746 754 763 765 766 758 743 743 745 740 740 739 739 744 751 762 763 757 757 748 747 768 784 789 784 774 775 779 774 768 766 765 765 764 765 768 768 768 768 767 766 766 767 766 765 765
758 757 757 757 756 756 756 756 759 760 760 760 761 767 771 767 766 766 763 762 763 763 762 757 751 751 754 751 746 742 737 737 739 739 742 745 742 742 743 741 741 741 738 743 753 757 758 754 743 742 742 740 742 740 739 740 743 755 758 749 749 752 751 759 772 783 784 775 775 781 779 774 767 765 767 768 771 773 772 771 771 770 768 769 769 768 767 767
759 758 757 757 757 757 757 757 759 759 759 761 764 770 774 769 766 766 763 762 763 763 764 762 756 753 757 756 750 745 740 740 742 741 743 746 743 739 739 739 738 739 736 738 745 751 755 755 746 742 743 742 742 742 743 744 743 745 746 741 746 755 756 761 769 774 777 779 778 779 782 777 765 766 773 774 776 778 774 772 773 772 771 771 771 770 769 769
760 758 757 759 758 758 758 758 760 759 758 764 768 769 772 770 766 765 763 762 764 764 763 762 759 756 757 756 752 748 745 744 744 743 743 746 744 739 739 739 738 740 739 737 742 749 754 757 751 745 744 744 741 741 744 747 745 743 744 744 747 751 753 758 763 761 765 776 779 776 774 767 763 772 778 776 778 780 777 775 774 774 773 772 772 772 771 771
760 758 758 760 759 759 760 759 759 758 760 767 770 769 771 768 763 761 760 761 762 762 762 762 761 759 757 754 752 750 748 746 746 745 743 744 744 741 740 739 739 742 743 740 742 746 751 757 755 746 743 745 744 743 744 745 744 744 746 748 749 753 754 756 761 763 761 768 777 777 769 764 769 777 776 776 778 779 778 777 776 776 775 773 772 772 771 771
759 757 759 761 760 761 760 759 763 764 765 770 772 770 770 766 761 760 759 760 760 758 760 761 759 759 757 754 753 752 748 746 747 748 745 743 743 742 740 740 739 740 743 743 744 745 749 755 756 749 744 744 744 746 747 746 745 745 745 744 745 750 752 754 764 771 766 763 770 772 763 765 775 776 773 776 778 777 779 778 778 779 777 776 775 773 773 773
758 758 761 761 761 762 760 762 770 773 768 768 769 769 767 764 763 762 759 760 761 758 759 759 758 758 758 755 753 751 749 747 747 747 745 743 743 741 740 741 741 738 740 743 744 745 747 750 753 752 748 746 746 749 752 751 750 750 749 750 749 747 746 748 755 764 768 770 772 768 762 768 778 776 774 777 776 777 780 779 780 781 779 778 778 776 776 776
757 760 762 762 762 762 761 765 772 772 767 768 769 768 767 766 764 763 761 761 761 760 760 759 757 757 756 754 753 751 749 747 746 745 745 745 743 741 740 741 742 739 738 741 744 745 747 750 754 753 750 746 744 749 753 752 751 751 753 759 759 754 753 752 749 751 760 768 767 763 764 772 779 777 775 777 778 780 783 783 783 784 783 782 782 780 780 779
759 762 763 763 763 762 763 766 769 769 769 770 768 766 767 768 766 764 763 762 761 761 760 758 757 756 756 756 754 751 749 748 747 744 744 746 743 740 741 741 741 738 736 738 742 745 748 751 753 756 758 756 753 753 751 749 752 756 761 766 765 763 763 758 753 751 754 764 764 756 762 775 778 777 777 779 783 786 788 789 788 788 789 788 787 786 785 784
759 762 764 764 763 763 766 769 769 770 772 772 770 768 769 768 765 765 765 763 761 762 761 759 757 757 758 757 754 751 748 748 748 745 744 746 742 740 742 742 740 738 736 737 739 743 752 758 756 754 758 761 760 759 757 754 757 762 768 772 772 773 768 757 753 750 753 767 766 753 761 778 780 778 781 783 786 789 792 793 793 793 794 793 792 791 790 789
756 760 765 765 765 765 769 772 770 769 772 772 770 771 772 768 765 765 765 764 762 762 762 760 758 758 759 757 754 753 751 749 749 748 747 747 745 745 745 742 740 740 739 739 740 745 758 768 767 760 757 757 759 764 769 767 764 764 770 775 777 781 778 763 752 748 751 763 767 760 767 778 779 781 786 788 789 792 795 795 795 796 796 795 795 794 792 793
755 759 764 765 765 767 769 771 771 770 772 772 771 773 774 771 768 765 764 763 762 762 762 762 762 761 762 762 756 755 756 752 750 752 753 752 751 749 747 744 742 743 745 744 742 747 757 767 773 772 771 771 771 772 775 774 774 776 779 778 777 779 777 763 753 754 753 752 760 769 772 775 780 786 789 792 793 794 796 797 797 798 798 797 796 795 794 795
757 760 764 763 763 766 768 768 771 772 773 773 775 776 774 773 771 767 764 763 762 762 761 761 763 764 767 768 762 758 759 755 753 757 758 755 754 752 750 750 746 746 751 751 744 745 754 765 774 777 777 777 776 774 774 776 782 786 785 782 778 776 773 767 766 773 766 751 753 767 773 778 788 793 794 796 796 796 798 798 798 799 799 799 798 797 797 798
759 761 765 764 763 768 772 772 772 771 772 774 775 776 775 773 771 769 769 766 763 763 763 762 764 766 767 767 763 762 763 758 757 762 762 760 758 755 755 757 752 750 757 757 749 746 754 768 777 776 775 777 777 775 775 777 780 784 786 784 779 775 775 773 774 777 769 758 759 769 780 790 797 798 799 801 799 798 799 800 800 801 801 802 801 801 802 802
757 757 761 763 766 772 774 774 772 769 772 775 773 773 775 773 770 770 770 768 765 765 765 765 767 768 767 764 761 763 767 764 762 764 764 762 761 758 758 759 758 758 759 756 750 745 751 767 775 772 771 776 778 778 777 777 778 782 786 787 782 777 776 777 779 778 772 768 772 778 787 798 801 801 803 803 802 801 802 803 805 805 805 805 804 805 806 805
756 756 757 758 766 774 774 775 776 770 771 775 773 772 774 772 772 773 769 767 768 766 766 767 768 767 767 765 763 765 767 767 765 764 762 761 761 761 762 761 763 764 760 755 752 748 751 767 775 768 767 775 780 780 779 780 779 778 784 791 790 785 782 782 786 787 781 777 779 781 787 797 803 803 804 805 805 806 807 808 809 809 809 809 808 809 809 808
757 757 756 756 765 776 776 776 777 772 771 776 777 775 774 771 773 774 768 765 766 765 766 768 766 765 766 767 766 765 766 765 764 762 761 761 762 764 765 764 765 767 764 758 756 754 754 761 766 762 762 774 782 781 780 778 773 774 786 798 798 793 789 786 788 789 785 781 781 783 789 798 804 803 805 809 810 810 812 813 813 813 813 812 812 812 812 812